Date String (YYYY-MM-DD hh:mm:ss) UTC,Instrument flags,Ambient pressure (hPa),Sample flow (lpm),Bypass flow (lpm),Sample temperature (°C),Ambient temperature (°C),ASC tube jacket temperature (°C),LED temperature (°C),Box temperature (°C),Sample RH (%),Span deviation,Mass concentration (μg/m³),Mass concentration (μg/m³),Mass concentration (μg/m³)
DateTimeUTC,F1_M11,P_M11,Q1_M11,Q2_M11,T1_M11,T2_M11,T3_M11,T4_M11,T5_M11,U1_M11,ZSPAN_M11,X0_M11,X2_M11,X1_M11
2023-05-01 21:00:00,,0827.0,5.00,0.00,29.7,28.5,00.0,38.1,31.3,12.8,0000.7,0022.98,0009.43,0007.37
2023-05-01 21:01:00,,0827.0,5.00,0.00,29.7,28.5,00.0,38.1,31.3,13.0,0003.7,0022.18,0009.36,0007.26
2023-05-01 21:02:00,,0827.0,4.98,0.00,29.8,28.5,00.0,38.1,31.3,12.8,0003.9,0022.16,0009.29,0007.18
2023-05-01 21:03:00,,0827.0,5.01,0.00,29.8,28.5,00.0,38.1,31.3,12.9,0004.3,0022.45,0009.27,0007.12
2023-05-01 21:04:00,,0827.0,5.00,0.00,29.8,28.5,00.0,38.2,31.3,13.1,0002.9,0022.64,0009.18,0007.04
2023-05-01 21:05:00,,0827.0,5.01,0.00,29.8,28.5,00.0,38.2,31.3,13.0,0004.4,0022.38,0009.15,0006.98
2023-05-01 21:06:00,,0827.0,5.00,0.00,29.8,28.5,00.0,38.2,31.3,12.8,0004.6,0021.62,0009.10,0006.93
2023-05-01 21:07:00,,0827.0,4.98,0.00,29.8,28.6,00.0,38.2,31.3,12.8,0003.2,0021.75,0009.11,0006.90
2023-05-01 21:08:00,,0827.1,5.00,0.00,29.8,28.6,00.0,38.2,31.3,12.8,0000.0,0021.36,0009.05,0006.89
2023-05-01 21:09:00,,0827.1,5.00,0.00,29.8,28.6,00.0,38.2,31.3,12.9,0001.3,0021.71,0009.11,0006.88
2023-05-01 21:10:00,,0827.0,5.00,0.00,29.8,28.6,00.0,38.2,31.3,13.0,0005.5,0021.06,0009.18,0006.83
2023-05-01 21:11:00,,0827.0,5.01,0.00,29.8,28.6,00.0,38.2,31.4,12.7,0005.8,0020.82,0009.17,0006.80
2023-05-01 21:12:00,,0827.0,5.00,0.00,29.9,28.6,00.0,38.2,31.4,12.8,0003.9,0021.38,0009.12,0006.75
2023-05-01 21:13:00,,0827.0,4.98,0.00,29.9,28.7,00.0,38.2,31.4,12.7,0003.2,0021.41,0009.05,0006.71
2023-05-01 21:14:00,,0827.0,4.99,0.00,29.9,28.7,00.0,38.2,31.4,12.9,0005.7,0021.46,0008.99,0006.67
2023-05-01 21:15:00,,0827.0,5.00,0.00,29.9,28.7,00.0,38.3,31.5,13.1,0002.5,0020.76,0009.00,0006.66
2023-05-01 21:16:00,,0827.0,5.01,0.00,29.9,28.7,00.0,38.3,31.5,13.1,0000.4,0020.53,0009.01,0006.68
2023-05-01 21:17:00,,0827.0,5.01,0.00,29.9,28.8,00.0,38.3,31.5,12.8,0003.2,0021.31,0009.10,0006.74
2023-05-01 21:18:00,,0827.0,4.99,0.00,30.0,28.8,00.0,38.3,31.5,12.9,0005.1,0022.04,0009.18,0006.78
2023-05-01 21:19:00,,0826.9,5.00,0.00,30.0,28.8,00.0,38.3,31.5,12.7,0004.7,0024.27,0009.26,0006.79
2023-05-01 21:20:00,,0827.0,5.01,0.00,30.0,28.9,00.0,38.3,31.5,12.7,0004.5,0025.39,0009.28,0006.78
2023-05-01 21:21:00,,0827.0,5.00,0.00,30.0,28.9,00.0,38.4,31.5,12.5,0004.1,0026.39,0009.24,0006.74
2023-05-01 21:22:00,,0827.0,5.00,0.00,30.0,28.9,00.0,38.4,31.6,12.9,0003.1,0026.93,0009.19,0006.70
2023-05-01 21:23:00,,0827.0,5.00,0.00,30.0,28.9,00.0,38.4,31.6,12.9,0002.8,0027.91,0009.17,0006.70
2023-05-01 21:24:00,,0827.0,5.01,0.00,30.1,28.9,00.0,38.4,31.6,13.0,0002.6,0027.87,0009.19,0006.74
2023-05-01 21:25:00,,0827.1,5.01,0.00,30.1,29.0,00.0,38.4,31.6,12.9,0002.3,0027.58,0009.23,0006.80
2023-05-01 21:26:00,,0827.1,5.00,0.00,30.1,29.0,00.0,38.4,31.7,13.2,0002.5,0028.63,0009.29,0006.84
2023-05-01 21:27:00,,0827.1,4.99,0.00,30.1,29.1,00.0,38.5,31.7,13.1,0003.3,0028.55,0009.30,0006.83
2023-05-01 21:28:00,,0827.1,5.00,0.00,30.1,29.1,00.0,38.5,31.7,12.8,0004.3,0028.47,0009.19,0006.77
2023-05-01 21:29:00,,0827.1,5.01,0.00,30.2,29.1,00.0,38.5,31.7,12.5,0003.9,0028.13,0009.04,0006.72
2023-05-01 21:30:00,,0827.0,5.00,0.00,30.2,29.2,00.0,38.5,31.7,12.0,0000.0,0026.77,0008.89,0006.68
2023-05-01 21:31:00,,0827.0,4.98,0.00,30.2,29.2,00.0,38.5,31.7,12.1,0000.0,0025.77,0008.90,0006.67
2023-05-01 21:32:00,,0826.9,5.01,0.00,30.2,29.2,00.0,38.6,31.7,12.1,0000.0,0024.45,0008.88,0006.70
2023-05-01 21:33:00,,0826.8,5.00,0.00,30.3,29.2,00.0,38.6,31.8,12.3,0002.9,0023.71,0008.86,0006.71
2023-05-01 21:34:00,,0826.8,4.99,0.00,30.3,29.3,00.0,38.6,31.8,12.0,0003.2,0023.23,0008.86,0006.69
2023-05-01 21:35:00,,0826.8,5.02,0.00,30.3,29.2,00.0,38.6,31.8,11.9,0000.9,0023.70,0008.85,0006.62
2023-05-01 21:36:00,,0826.8,5.00,0.00,30.3,29.2,00.0,38.6,31.8,11.5,0000.0,0024.14,0008.75,0006.52
2023-05-01 21:37:00,,0826.9,4.99,0.00,30.3,29.1,00.0,38.6,31.8,11.7,0000.0,0023.26,0008.72,0006.47
2023-05-01 21:38:00,,0827.0,4.99,0.00,30.3,29.1,00.0,38.6,31.8,11.4,0000.0,0023.07,0008.70,0006.41
2023-05-01 21:39:00,,0827.1,5.01,0.00,30.3,29.1,00.0,38.6,31.8,11.4,0000.0,0022.61,0008.68,0006.35
2023-05-01 21:40:00,,0827.2,5.01,0.00,30.3,29.1,00.0,38.7,31.9,11.5,0000.0,0022.18,0008.64,0006.29
2023-05-01 21:41:00,,0827.1,5.01,0.00,30.3,29.2,00.0,38.7,31.9,11.5,0000.0,0021.87,0008.59,0006.24
2023-05-01 21:42:00,,0827.2,5.01,0.00,30.4,29.2,00.0,38.7,31.9,11.5,0000.5,0021.83,0008.50,0006.17
2023-05-01 21:43:00,,0827.1,4.99,0.00,30.4,29.2,00.0,38.7,31.9,11.5,0000.0,0022.32,0008.45,0006.10
2023-05-01 21:44:00,,0827.0,5.00,0.00,30.4,29.2,00.0,38.7,31.9,11.0,0000.0,0022.60,0008.42,0006.05
2023-05-01 21:45:00,,0826.9,5.01,0.00,30.4,29.2,00.0,38.7,31.9,11.1,0000.0,0022.49,0008.41,0006.00
2023-05-01 21:46:00,,0826.9,5.00,0.00,30.4,29.2,00.0,38.7,31.9,10.9,0002.5,0021.49,0008.32,0005.92
2023-05-01 21:47:00,,0826.8,4.99,0.00,30.4,29.2,00.0,38.8,31.9,10.8,0000.5,0021.35,0008.25,0005.85
2023-05-01 21:48:00,,0826.8,4.99,0.00,30.4,29.2,00.0,38.8,31.9,10.6,0000.0,0021.54,0008.11,0005.74
2023-05-01 21:49:00,,0826.8,5.00,0.00,30.4,29.2,00.0,38.8,31.9,11.0,0000.0,0021.67,0008.03,0005.66
2023-05-01 21:50:00,,0826.8,5.01,0.00,30.4,29.2,00.0,38.8,31.9,11.3,0000.0,0022.06,0007.95,0005.58
2023-05-01 21:51:00,,0826.8,5.01,0.00,30.4,29.2,00.0,38.8,31.9,11.3,0000.0,0022.05,0007.90,0005.51
2023-05-01 21:52:00,,0826.7,5.00,0.00,30.4,29.3,00.0,38.8,32.0,11.0,0000.0,0023.08,0007.91,0005.43
2023-05-01 21:53:00,,0826.6,4.99,0.00,30.4,29.3,00.0,38.8,32.0,10.6,0000.0,0023.65,0007.78,0005.36
2023-05-01 21:54:00,,0826.6,5.00,0.00,30.4,29.3,00.0,38.8,32.0,10.5,0000.0,0023.36,0007.68,0005.29
2023-05-01 21:55:00,,0826.6,5.02,0.00,30.4,29.3,00.0,38.8,32.0,10.6,0000.0,0022.25,0007.58,0005.22
2023-05-01 21:56:00,,0826.6,4.99,0.00,30.4,29.3,00.0,38.9,32.0,10.8,0000.0,0021.00,0007.43,0005.17
2023-05-01 21:57:00,,0826.5,4.99,0.00,30.4,29.3,00.0,38.9,32.0,11.0,0000.0,0021.41,0007.42,0005.13
2023-05-01 21:58:00,,0826.5,5.01,0.00,30.4,29.3,00.0,38.9,32.0,11.1,0000.0,0021.76,0007.45,0005.10
2023-05-01 21:59:00,,0826.4,5.00,0.00,30.5,29.3,00.0,38.9,32.0,10.7,0000.0,0021.81,0007.42,0005.09
